EW2984 Weather Reports


time (UTC)temp
C
wind
direction
speed
KPH
gust
KPH
rain 1hr
cm
rain 24hr
cm
rain mn
cm
humidity
%
barometer
mb
20260505093038 15 144 0.0 1.6 0.00 0.00 0.00 73 1010.0
20260505091540 15 135 0.0 6.4 0.00 0.00 0.00 73 1009.8
20260505090034 15 232 0.0 1.6 0.00 0.00 0.00 73 1009.9
20260505084533 15 208 0.0 1.6 0.00 0.00 0.00 73 1010.0
20260505083033 15 227 0.0 1.6 0.00 0.00 0.00 72 1009.8
20260505081528 15 227 0.0 1.6 0.00 0.00 0.00 70 1009.7
20260505080027 15 223 0.0 1.6 0.00 0.00 0.00 69 1009.7
20260505074526 15 157 0.0 3.2 0.00 0.00 0.00 69 1009.7
20260505073027 15 211 0.0 1.6 0.00 0.00 0.00 70 1009.6
20260505071525 15 211 0.0 1.6 0.00 0.00 0.00 70 1009.4
20260505070022 15 218 0.0 1.6 0.00 0.00 0.00 70 1009.6
20260505064520 16 131 0.0 1.6 0.00 0.00 0.00 69 1009.7
20260505063017 16 131 0.0 1.6 0.00 0.00 0.00 67 1009.9
20260505061515 16 174 0.0 1.6 0.00 0.00 0.00 66 1010.0
20260505060017 16 150 0.0 1.6 0.00 0.00 0.00 65 1009.9
20260505054515 17 138 0.0 1.6 0.00 0.00 0.00 64 1010.0
20260505053013 17 146 0.0 3.2 0.00 0.00 0.00 63 1009.9
20260505051530 17 154 0.0 3.2 0.00 0.00 0.00 63 1010.0
20260505041505 16 192 0.0 3.2 0.00 0.00 0.00 61 1009.7
20260505040003 16 195 0.0 1.6 0.00 0.00 0.00 63 1009.8
20260505034502 16 200 0.0 3.2 0.00 0.00 0.00 62 1009.7
20260505033002 16 218 0.0 3.2 0.00 0.00 0.00 61 1009.6
20260505031502 16 141 0.0 3.2 0.00 0.00 0.00 59 1009.6
20260505024559 17 135 0.0 3.2 0.00 0.00 0.00 58 1009.6
20260505023058 17 186 0.0 4.8 0.00 0.00 0.00 57 1009.8
20260505021558 17 186 0.0 4.8 0.00 0.00 0.00 57 1009.8
20260505020105 17 150 1.6 4.8 0.00 0.00 0.00 56 1009.4
20260505014558 17 192 0.0 6.4 0.00 0.00 0.00 56 1009.5
20260505013105 17 174 0.0 4.8 0.00 0.00 0.00 55 1009.6
20260505011600 17 222 0.0 3.2 0.00 0.00 0.00 55 1009.5
20260505010111 18 131 0.0 4.8 0.00 0.00 0.00 53 1009.3
20260505004555 18 118 1.6 11.3 0.00 0.00 0.00 51 1009.0
20260505003057 19 197 1.6 8.0 0.00 0.00 0.00 50 1009.1
20260505001602 20 95 0.0 17.7 0.00 0.00 0.00 47 1009.0
20260505000055 20 189 0.0 4.8 0.00 0.00 0.00 46 1008.9
20260504234552 20 218 0.0 8.0 0.00 0.00 0.00 45 1008.8
20260504233105 21 219 0.0 6.4 0.00 0.00 0.00 43 1008.8
20260504231551 21 195 0.0 6.4 0.00 0.00 0.00 43 1008.9
20260504230055 21 153 0.0 4.8 0.00 0.00 0.00 44 1008.9
20260504224551 21 208 1.6 4.8 0.00 0.00 0.00 43 1009.0
20260504223047 21 151 0.0 3.2 0.00 0.00 0.00 43 1009.0
20260504221546 22 208 0.0 8.0 0.00 0.00 0.00 43 1009.1
20260504220045 22 229 1.6 6.4 0.00 0.00 0.00 42 1009.2
20260504214553 22 323 1.6 8.0 0.00 0.00 0.00 41 1009.2
20260504213043 22 204 1.6 8.0 0.00 0.00 0.00 41 1009.2
20260504211542 22 81 0.0 4.8 0.00 0.00 0.00 40 1009.3
20260504210045 23 244 0.0 8.0 0.00 0.00 0.00 40 1009.2
20260504204547 23 231 0.0 11.3 0.00 0.00 0.00 38 1009.2
20260504203053 23 121 3.2 8.0 0.00 0.00 0.00 38 1009.3
20260504201538 23 231 1.6 8.0 0.00 0.00 0.00 40 1009.6
20260504200035 23 215 3.2 12.9 0.00 0.00 0.00 39 1010.0
20260504194535 23 150 1.6 12.9 0.00 0.00 0.00 37 1010.0
20260504193029 23 212 0.0 9.7 0.00 0.00 0.00 40 1010.3
20260504191527 23 225 0.0 8.0 0.00 0.00 0.00 40 1010.6
20260504190023 22 224 1.6 8.0 0.00 0.00 0.00 41 1010.8
20260504184520 22 202 1.6 19.3 0.00 0.00 0.00 41 1011.1
20260504183016 22 210 1.6 11.3 0.00 0.00 0.00 41 1011.4
20260504181514 21 274 1.6 9.7 0.00 0.00 0.00 41 1011.5
20260504180011 21 276 0.0 9.7 0.00 0.00 0.00 41 1011.6
20260504174508 21 290 0.0 6.4 0.00 0.00 0.00 42 1011.8
20260504173008 20 257 0.0 12.9 0.00 0.00 0.00 46 1011.8
20260504171501 20 259 3.2 8.0 0.00 0.00 0.00 44 1012.1